Regional Weather Roundup
Issued by NWS

Home | Current Version | Previous Version | Text Only | Print | Product List | Glossary On
Versions: 1 2 3 4 5 6 7 8 9 10 11 12 13 14 15 16 17 18 19 20 21 22 23 24 25 26 27 28 29 30 31 32 33 34 35 36 37 38 39 40 41 42 43 44 45 46 47 48 49 50
000
ASHW40 PHFO 180643
RWRHI

WEATHER ROUNDUP FOR HAWAII
NATIONAL WEATHER SERVICE HONOLULU HI
800 PM HST THU AUG 17 2017

THIS IS AN AUTOMATED REPORT THAT HAS NOT BEEN QUALITY CONTROLLED.

NOTE..."FAIR" INDICATES FEW OR NO CLOUDS BELOW 12,000 FEET WITH NO
SIGNIFICANT WEATHER AND/OR OBSTRUCTIONS TO VISIBILITY.

* - THESE SITES REPORT LIMITED FIELDS
# - BUOY DATA PROVIDED BY PACIFIC ISLANDS OCEAN OBSERVING SYSTEM.

HIZ001>004-180700-
KAUAI-NIIHAU-

CITY           SKY/WX    TMP DP  RH WIND       PRES   REMARKS
LIHUE APT      PTCLDY    80  70  71 NE17      30.00R
PORT ALLEN*      N/A     81 N/A N/A E12         N/A
POIPU*           N/A     79 N/A N/A NE7G16      N/A
PRINCEVILLE*     N/A     77 N/A N/A E5          N/A
KOKOLE POINT*  NOT AVBL
MOLOAA DAIRY*    N/A     77  70  78 E1          N/A
WAIMEA HTS*      N/A     79  72  78 S6          N/A
PUU OPAE*        N/A     70  64  83 N3          N/A
PUU LUA*       NOT AVBL
MAKAHA RIDGE*    N/A     72  66  83 CALM        N/A
$$

HIZ005>011-180700-
OAHU-

CITY           SKY/WX    TMP DP  RH WIND       PRES   REMARKS
HONOLULU       PTCLDY    82  64  54 E16       29.97R
KALAELOA       PTCLDY    79  64  60 NE5       29.98R
KANEOHE MCB    PTCLDY    81  69  67 NE10G20   29.96R
WHEELER FIELD  MOCLDY    75  66  73 N7        29.99R
BELLOWS*         N/A    N/A N/A N/A NE17        N/A
KAHUKU*          N/A    N/A N/A N/A NE7G14      N/A
WHEELER*         N/A    N/A N/A N/A N3          N/A
WAIANAE HARBOR   N/A    N/A N/A N/A E7G14       N/A
DILLINGHAM*      N/A     79  68  69 W3G12       N/A
KAHUKU TRN*      N/A     88  77  70 W10G18      N/A  HX 100
KAWAILOA*        N/A     72  66  83 NE6G14      N/A
KII*             N/A     79  70  73 NE15        N/A
MAKUA RANGE*     N/A     91  75  59 W3G22       N/A  HX 102
OAHU FOREST NW   N/A     72  63  73 E10G26      N/A
SCHOFIELD BRK*   N/A     64  55  72 S1          N/A
SCHOFIELD S*   NOT AVBL
WAIANAE VLY*     N/A     90  77  66 S3G12       N/A  HX 102
KUAOKALA*        N/A     73  66  78 E17G29      N/A
HONOULIUULI*   NOT AVBL
MOKUOLOE IS*   NOT AVBL
PALEHUA*         N/A     66  61  82 NE12G21     N/A
WAIAWA PHB*    NOT AVBL
$$

HIZ012>013-180700-
MOLOKAI-

CITY           SKY/WX    TMP DP  RH WIND       PRES   REMARKS
MOLOKAI AIRPT  CLEAR     78  69  73 NE14G22   29.99R
KALAUPAPA      NOT AVBL
MAKAPULAPAI*     N/A     79  68  69 E16G22      N/A
MOLOKAI 1*       N/A     81  72  74 NE3G13      N/A
PUU ALII*        N/A     61  60  98 N3G14       N/A
$$

HIZ016-180700-
KAHOOLAWE-

CITY           SKY/WX    TMP DP  RH WIND       PRES   REMARKS
KAHOOLAWE*     NOT AVBL
HAKIOAWA*        N/A     75  67  76 MISG        N/A
HONOKANAIA*      N/A     81  68  63 NE7G17    29.88R
KANELOA*         N/A     79  70  73 E12G24    30.02
KEALIALALO*    NOT AVBL
LUA MAKIKA*    NOT AVBL
$$

HIZ014>015-180700-
LANAI-

CITY           SKY/WX    TMP DP  RH WIND       PRES   REMARKS
LANAI CITY     MOCLDY    73  66  78 NE14      30.02R
LANAI 1*         N/A     73  68  83 NE15G26     N/A
$$

HIZ017>028-180700-
MAUI-

CITY           SKY/WX    TMP DP  RH WIND       PRES   REMARKS
KAHULUI        CLEAR     78  67  68 NE14      29.96R
KAPALUA-W MAUI NOT AVBL
HANA AIRPORT   CLOUDY    79  68  69 NE5       30.03R
HANA*          NOT AVBL
HALEAKALA SUMM   N/A     52  -2  11 NE10        N/A
MAALAEA BAY*     N/A     79 N/A N/A N17G28      N/A
HALEAKALA*     NOT AVBL
KAUPO GAP*     NOT AVBL
KULA 1*          N/A     52  35  52 E2          N/A
$$

HIZ023>026-180700-
BIG ISLAND OF HAWAII COAST AND LOWER SLOPES-

CITY           SKY/WX    TMP DP  RH WIND       PRES   REMARKS
KAILUA KONA    CLOUDY    81  67  62 S6        29.93R
HILO           PTCLDY    78  68  71 NE5       29.98R
HONOKAA*         N/A     70 N/A N/A VRB1        N/A
KAWAIHAE MWT*    N/A     82 N/A N/A SW5         N/A
KAWAIHAE*        N/A     81 N/A N/A W7        29.95S
SOUTH POINT*     N/A     75 N/A N/A N10G16      N/A
UPOLU AIRPORT* NOT AVBL
KAMUELA*         N/A     66  64  94 NE16      30.09R
HAKALAU*         N/A     45  32  61 W3          N/A
KALOKO-HONOKO*   N/A     81  68  65 SW3       29.93R
PALI 2*          N/A     66  59  77 S14G22      N/A
KEALAKOMO*       N/A     81  66  61 N23G33      N/A
KAUPULEHU*       N/A     75  66  73 N3G12       N/A
KAPAPALA*        N/A     69  69  98 N3          N/A
LOWER KAHUKU*    N/A     66  64  94 CALM        N/A
PUHE CS*         N/A     81  68  65 SW1         N/A
PUHO CS*         N/A     80  68  65 NE2         N/A
PTA KEAMUKU*     N/A     64  59  82 E12G18      N/A
WAIKOLOA*        N/A     75  64  69 NE6G18      N/A
$$

HIZ027>028-180700-
BIG ISLAND OF HAWAII INTERIOR AND SUMMMITS-

CITY           SKY/WX    TMP DP  RH WIND       PRES   REMARKS
BRADSHAW FIELD CLEAR     57  54  88 CALM      30.30R
MK VISITOR CEN   N/A     50  34  53 NE2         N/A
MAUNA KEA*       N/A     39  14  35 CALM        N/A
MAUNA LOA*       N/A    N/A N/A N/A MISG        N/A
MAUNA LOA 1*   NOT AVBL
PTA KIPUKA*      N/A     75  72  88 S3G9        N/A
PTA RANGE 17*    N/A     61  57  88 E3G9        N/A
PTA WEST*        N/A     64  59  82 NW3         N/A
NENE CABIN*      N/A     55  55 100 E5G10       N/A
AHUMOA*          N/A    N/A N/A N/A E5          N/A
PTA PORTABLE*  NOT AVBL
PUU MALI*        N/A     63   1   8 E8          N/A
$$

HIC003-180700-
NORTHWEST ISLANDS-

CITY           SKY/WX    TMP DP  RH WIND       PRES   REMARKS
MIDWAY ISLAND  PTCLDY    82  75  78 E14       30.11R
MIDWAY NOS*      N/A     81 N/A N/A MISG      30.10R
FRENCH FRIGATE NOT AVBL
$$

PHZ110>124-180-180700-
BUOY REPORTS

STATION/POSITION TIME  TEMP    WIND        PRES    WAVE   SWELL
                       AIR SEA DIR/SP/G            HT/PER HT/DIR
                 (UTC) (F)     (DEG/KT/KT) (MB)    (FT/S) (FT/D)
BUOY 51001       0620   81 81   70/ 12/ 14 1016.7
BUOY 51101       0550   80 82   60/ 12/ 14 1016.9R   5/ 7   5/ 70
BUOY 51100       NOT AVBL
BUOY 51002       0620   80      60/ 12/ 16 1013.4
BUOY 51003       0550   79 82   70/  8/ 10 1013.8R   5/15   5/140
BUOY 51004       0550      80   80/ 14/ 16 1013.5R   6/15   5/140
WAIMEA BAY#      0602      79                N/A     4/ 8
MOKAPU POINT#    0604      80                N/A     4/ 8   2/130
LANAI#           NOT AVBL
BARBERS PT 2#    NOT AVBL
PAUWELA#         0609      80                N/A     5/ 8
HILO#            0557      81                N/A     5/ 8   2/130
KANEOHE BAY#     NOT AVBL
KANEOHE BAY 2#   NOT AVBL
HANALEI#         0552      81                N/A     4/ 8
KAHULUI HARBOR   0612   79 81   50/ 11/ 16 1015.1
HONOLULU HARBOR  0612   80 81   80/  1/  7 1015.8
PEARL HARBOR#    0530      81                N/A     3/15   2/160
KILO NALU        NOT AVBL
HILO HARBOR      0612   79 80   20/  7/  8 1015.0
MOKUOLOE         0536   80 82   70/ 12/ 15 1015.3R
NAWILIWILI       0612   80 85   40/  8/ 12 1015.5
WHOTS BUOY       NOT AVBL
BUOY 51028       NOT AVBL
$$

......................KEY........................................
  SKY/WX - SKY CONDITIONS/PRESENT WEATHER
  TMP    - TEMPERATURE IN FAHRENHEIT
  DWPT   - DEWPOINT IN FAHRENHEIT
  RH     - RELATIVE HUMIDITY IN PERCENT
  WIND   - DIRECTION AND SPEED /MPH FOR ISLANDS...KTS FOR BUOYS/
  PRES   - MEAN SEA LEVEL PRESSURE IN INCHES OF HG
  VSB    - VISIBILITY IN MILES
  HX     - HEAT INDEX
  WCI    - WIND CHILL INDEX
  VRB    - VARIABLE WIND DIRECTION
  N/A    - NOT AVAILABLE




USA.gov is the U.S. government's official web portal to all federal, state and local government web resources and services.